Regional Weather Roundup
Issued by NWS

Home | Current Version | Previous Version | Graphics & Text | Print | Product List | Glossary On
Versions: 1 2 3 4 5 6 7 8 9 10 11 12 13 14 15 16 17 18 19 20 21 22 23 24 25 26 27 28 29 30 31 32 33 34 35 36 37 38 39 40 41 42 43 44 45 46 47 48 49 50
000
ASUS45 KBOU 230307
RWRCO

WEATHER ROUNDUP FOR COLORADO
NATIONAL WEATHER SERVICE DENVER/BOULDER CO
900 PM MDT FRI AUG 22 2014

NOTE: "FAIR" INDICATES FEW OR NO CLOUDS BELOW 12000 FEET WITH NO
SIGNIFICANT WEATHER AND/OR OBSTRUCTIONS TO VISIBILITY.

COZ001>005-013-030-031-230400-
...NORTHWEST COLORADO...

CITY           SKY/WX    TMP DP  RH WIND       PRES   REMARKS
CRAIG          CLOUDY    57  52  83 E6        30.08R
HAYDEN         MOCLDY    55  48  76 E8        30.10S
MEEKER         MOCLDY    59  53  80 CALM      30.09R
MOUNT WERNER   NOT AVBL
STEAMBOAT SPGS CLOUDY    55  52  90 S3        30.15R
WALDEN         CLOUDY    54  45  71 SE6       30.19R
$$

COZ006>008-011-230400-
...WEST CENTRAL VALLEYS...

CITY           SKY/WX    TMP DP  RH WIND       PRES   REMARKS
GRAND JUNCTION MOCLDY    63  54  72 SE12      29.99F
MONTROSE       MOCLDY    62  55  77 SE8       30.11S
EAGLE          MOCLDY    66  48  52 SW10      30.12R
RIFLE          MOCLDY    62  55  77 NE3       30.05R
DELTA          RAIN      68  51  53 E5        30.07S
NUCLA          MOCLDY    59  50  72 MISG      30.14S
$$

COZ017>023-064>068-230400-
...SOUTHWEST COLORADO...

CITY           SKY/WX    TMP DP  RH WIND       PRES   REMARKS
DURANGO        MOCLDY    54  51  90 NE3       30.21S
CORTEZ         CLOUDY    58  54  86 CALM      30.15R
PAGOSA SPRINGS   N/A     53  47  78 E3        30.27S
TELLURIDE      NOT AVBL
WOLF CREEK PAS NOT AVBL
$$

COZ009-010-012-014-032>034-037-058>063-230400-
...CENTRAL COLORADO...

CITY           SKY/WX    TMP DP  RH WIND       PRES   REMARKS
ASPEN          CLOUDY    57  48  72 SE10      30.19R
BUENA VISTA    MOCLDY    52  46  82 SE3       30.24R
COPPER MTN     MOCLDY    46  37  71 S14       30.46R
BERTHOUD PASS  MOCLDY    39  37  93 MISG      30.50R
COTTONWOOD PAS MOCLDY    50  45  81 CALM      30.33S
GUNNISON       CLOUDY    54  45  71 CALM      30.25R
KREMMLING      CLOUDY    59  50  72 CALM      30.16R
LEADVILLE      MOCLDY    46  43  89 SE5       30.32R
MONARCH PASS   FOG       39  37  93 SW17      30.56R VSB<1/4
SALIDA         MOCLDY    58  48  69 SE8       30.29R
SUNLIGHT       MOCLDY    46  43  87 CALM      30.38R
WILKERSON PASS NOT AVBL
$$

COZ069>075-230400-
...SAN LUIS VALLEY/SANGRE DE CRISTO MOUNTAINS...

CITY           SKY/WX    TMP DP  RH WIND       PRES   REMARKS
ALAMOSA        PTCLDY    51  49  92 E3        30.25R
LA VETA PASS   NOT AVBL
SAGUACHE       MOCLDY    50  50 100 E5        30.27S
$$

COZ035-036-038>040-230400-
...NORTHERN COLORADO FRONT RANGE...

CITY           SKY/WX    TMP DP  RH WIND       PRES   REMARKS
DENVER INTL AP CLOUDY    61  57  87 E9        30.07R
DMNS CITY PARK   N/A     62  57  82 E2        30.07S
AURORA         MOCLDY    60  58  95 E8        30.10R
FRONT RANGE AP CLOUDY    61  59  94 CALM      30.09R
ERIE MUNI ARPT LGT RAIN  64  58  81 E3        30.08R
BOULDER MUN AP CLOUDY    63  59  88 NE3       30.08R
CENTENNIAL     CLOUDY    60  56  86 SE6       30.09R
BROOMFIELD     MOCLDY    63  57  82 E6        30.10R
FORT COLLINS   CLOUDY    63  55  77 SE6       30.10R
LONGMONT       CLOUDY    66  58  74 CALM      30.09R
$$

COZ041-046-047-076>085-087-088-230400-
...PIKES PEAK/PALMER DIVIDE AND SOUTHERN FOOTHILLS...

CITY           SKY/WX    TMP DP  RH WIND       PRES   REMARKS
COLO. SPRINGS  CLOUDY    62  55  77 N6        30.12R
A. F. ACADEMY  CLOUDY    63  54  73 N7        30.13R
ELLICOTT       CLOUDY    60  56  86 E10       30.09R
FALCON         CLOUDY    57  56  94 N9        30.15R
FORT CARSON    CLOUDY    64  57  77 N8        30.08R
LIMON          CLOUDY    61  59  94 N15G25    30.03F
MONUMENT HILL  FOG       54  54 100 CALM      30.16R VSB 3/4
TRINIDAD       PTCLDY    64  57  78 NE6       30.08S
$$

COZ042>045-048>051-090-091-230400-
...NORTHEAST COLORADO...

CITY           SKY/WX    TMP DP  RH WIND       PRES   REMARKS
GREELEY ARPT   CLOUDY    63  54  72 E3        30.06S
AKRON          HVY RAIN  60  59  96 NW13      30.08S FOG
BURLINGTON     CLOUDY    65  63  93 NE5       30.02F
WRAY           RAIN      66  66  99 NE5       30.02R
STERLING       RAIN      64  63  94 N8        30.04F
HOLYOKE        NOT AVBL
FORT MORGAN    CLOUDY    60  59  95 E18G30    30.01F
$$

COZ086-089-092>099-230400-
...SOUTHEAST COLORADO...

CITY           SKY/WX    TMP DP  RH WIND       PRES   REMARKS
PUEBLO         MOCLDY    67  54  63 W8        30.02R
LA JUNTA       MOCLDY    68  63  84 SE6       30.02R
LAMAR          MOCLDY    68  63  84 NW7       29.95S
SPRINGFIELD      N/A     67  63  87 N7        30.01R
$$



USA.gov is the U.S. government's official web portal to all federal, state and local government web resources and services.